Goderich, Ontario

5:08 PM EDT on October 19, 2017 (GMT -0400)
Goderich

Weather History for CWGD - November, 2012

Change the Weather History Date:

Wednesday, November 21, 2012

  Actual Average (KP58) Record (KP58)
Temperature  
Mean Temperature 40 °F -  
Max Temperature 50 °F 42 °F 55 °F (2003)
Min Temperature 31 °F 33 °F 19 °F (2014)
Degree Days  
Heating Degree Days 24    
Moisture  
Dew Point 39 °F    
Average Humidity 83    
Maximum Humidity 100    
Minimum Humidity 70    
Precipitation  
Precipitation 0.00 in - - ()
Sea Level Pressure  
Sea Level Pressure 30.18 in    
Wind  
Wind Speed 6 mph ()    
Max Wind Speed 9 mph    
Max Gust Speed -    
Averages and records for this station are not official NWS values.
T = Trace of Precipitation, MM = Missing Value Source: Averaged Metar Reports

Daily Weather History Graph

Daily Weather History Graph

Search for Another Location

Airport or City:

Trip Planner

Search our weather history database for the weather conditions in past years. The results will help you decide how hot, cold, wet, or windy it might be!

Date:

Astronomy

Nov. 21, 2012 Rise Set
Actual Time 7:29 AM EST 4:55 PM EST
Civil Twilight 6:57 AM EST 5:27 PM EST
Nautical Twilight 6:22 AM EST 6:02 PM EST
Astronomical Twilight 5:48 AM EST 6:36 PM EST
Moon 1:22 PM EST (11/21) 12:35 AM EST (11/21)
Length of Visible Light 10h 29m
Length of Day
9h 26m
First Quarter, 61% of the Moon is Illuminated
Nov 21
First Quarter
Nov 28
Full
Dec 6
Last Quarter
Dec 13
New
Dec 20
First Quarter

Hourly Weather History & Observations

Time (EST) Temp. Windchill Dew Point Humidity Pressure Visibility Wind Dir Wind Speed Gust Speed Precip Events Conditions
12:00 AM 39.2 °F 35.0 °F 35.8 °F 88% 30.16 in - SE 5.8 mph - N/A   Unknown
1:00 AM 39 °F - 36 °F 84% 30.15 in - SE 8.1 mph - -  
1:00 AM 39.0 °F 33.4 °F 36.0 °F 89% 30.15 in - SE 8.1 mph - N/A   Unknown
2:00 AM 38.7 °F 33.6 °F 35.6 °F 89% 30.16 in - SE 6.9 mph - N/A   Unknown
3:00 AM 37.8 °F 32.5 °F 37.8 °F 100% 30.17 in - SE 6.9 mph - N/A   Unknown
4:00 AM 36.5 °F 33.9 °F 34.7 °F 93% 30.18 in - SSE 3.5 mph - N/A   Unknown
5:00 AM 34.0 °F 31.0 °F - N/A% 30.19 in - SE 3.5 mph - N/A   Unknown
6:00 AM - - - N/A% 30.19 in - ESE 2.3 mph - N/A   Unknown
7:00 AM 36 °F - - % 30.20 in - SE 8.1 mph - -  
7:00 AM 36.5 °F 30.3 °F - N/A% 30.20 in - SE 8.1 mph - N/A   Unknown
8:00 AM 36.5 °F 31.0 °F 34.5 °F 93% 30.21 in - SSE 6.9 mph - N/A   Unknown
9:00 AM 39.7 °F 36.5 °F 36.7 °F 89% 30.22 in - SSE 4.6 mph - N/A   Unknown
10:00 AM 44.6 °F 42.2 °F 40.6 °F 86% 30.22 in - South 4.6 mph - N/A   Unknown
11:00 AM 45.1 °F 41.4 °F 41.0 °F 85% 30.23 in - SW 6.9 mph - N/A   Unknown
12:00 PM 46.8 °F - 42.1 °F 84% 30.22 in - SSW 6.9 mph - N/A   Unknown
1:00 PM 47 °F - 42 °F 76% 30.20 in - SSW 6.9 mph - -  
1:00 PM 46.6 °F - 41.7 °F 83% 30.20 in - SSW 6.9 mph - N/A   Unknown
2:00 PM 48.4 °F - 40.6 °F 75% 30.19 in - South 8.1 mph - N/A   Unknown
3:00 PM 49.1 °F - 39.7 °F 70% 30.18 in - SSW 9.2 mph - N/A   Unknown
4:00 PM 49.6 °F - 41.4 °F 73% 30.16 in - South 8.1 mph - N/A   Unknown
5:00 PM 48.0 °F - 39.6 °F 73% 30.17 in - South 5.8 mph - N/A   Unknown
6:00 PM 46.9 °F - 39.6 °F 76% 30.17 in - SSE 4.6 mph - N/A   Unknown
7:00 PM 46 °F - 39 °F 70% 30.17 in - SSE 4.6 mph - -  
7:00 PM 45.7 °F 43.4 °F 39.4 °F 79% 30.17 in - SSE 4.6 mph - N/A   Unknown
8:00 PM 44.8 °F 41.0 °F 39.2 °F 81% 30.16 in - SSE 6.9 mph - N/A   Unknown
9:00 PM 44.2 °F 40.3 °F 39.6 °F 84% 30.15 in - SSE 6.9 mph - N/A   Unknown
10:00 PM 43.9 °F 39.3 °F 39.4 °F 84% 30.15 in - SSE 8.1 mph - N/A   Unknown
11:00 PM 43.0 °F 38.2 °F 37.8 °F 82% 30.14 in - South 8.1 mph - N/A   Unknown